Phoenix, AZ

11:39 AM MST on February 10, 2016 (GMT -0700)
Phoenix Sky Harbor International

Weather History for KPHX - January, 2012

Change the Weather History Date:

Sunday, January 8, 2012

  Actual Average Record
Temperature  
Mean Temperature 57 °F 56 °F  
Max Temperature 67 °F 66 °F 81 °F (2002)
Min Temperature 47 °F 45 °F 19 °F (1913)
Degree Days  
Heating Degree Days 8 9  
Month to date heating degree days 22 78  
Since 1 July heating degree days 450 479  
Cooling Degree Days 0 0  
Month to date cooling degree days 3 0  
Year to date cooling degree days 3 0  
Growing Degree Days 6 (Base 50)    
Moisture  
Dew Point 21 °F    
Average Humidity 30    
Maximum Humidity 45    
Minimum Humidity 15    
Precipitation  
Precipitation 0.00 in 0.03 in 1.22 in (1993)
Month to date precipitation 0.00 0.24  
Year to date precipitation 0.00 0.24  
Snow  
Snow 0.00 in - - ()
Month to date snowfall 0.0  
Year to date snowfall 0.0  
Since 1 July snowfall 0.0  
Snow Depth 0.00 in    
Sea Level Pressure  
Sea Level Pressure 29.99 in    
Wind  
Wind Speed 6 mph (WNW)    
Max Wind Speed 16 mph    
Max Gust Speed 20 mph    
Visibility 10 miles    
Events      
T = Trace of Precipitation, MM = Missing Value Source: NWS Daily Summary

Daily Weather History Graph

Daily Weather History Graph

Search for Another Location

Airport or City:

Trip Planner

Search our weather history database for the weather conditions in past years. The results will help you decide how hot, cold, wet, or windy it might be!

Date:

Astronomy

Jan. 08, 2012 Rise Set
Actual Time 7:32 AM MST 5:36 PM MST
Civil Twilight 7:05 AM MST 6:03 PM MST
Nautical Twilight 6:34 AM MST 6:34 PM MST
Astronomical Twilight 6:04 AM MST 7:04 PM MST
Moon 5:22 PM MST (1/8) 6:54 AM MST (1/8)
Length of Visible Light 10h 58m
Length of Day
10h 03m
Full, 100% of the Moon is Illuminated
Jan 8
Full
Jan 9
Full
Jan 16
Last Quarter
Jan 23
New
Jan 30
First Quarter

Hourly Weather History & Observations

Time (MST) Temp. Dew Point Humidity Pressure Visibility Wind Dir Wind Speed Gust Speed Precip Events Conditions
12:51 AM 52.0 °F 23.0 °F 32% 29.87 in 10.0 mi WSW 8.1 mph - N/A   Clear
1:51 AM 52.0 °F 19.9 °F 28% 29.88 in 10.0 mi West 8.1 mph - N/A   Clear
2:51 AM 51.1 °F 21.9 °F 32% 29.90 in 10.0 mi WSW 9.2 mph - N/A   Clear
3:51 AM 52.0 °F 23.0 °F 32% 29.90 in 10.0 mi WSW 8.1 mph - N/A   Clear
4:51 AM 48.9 °F 24.1 °F 38% 29.92 in 10.0 mi SW 3.5 mph - N/A   Clear
5:51 AM 48.0 °F 26.1 °F 42% 29.95 in 10.0 mi Calm Calm - N/A   Partly Cloudy
6:51 AM 48.9 °F 25.0 °F 39% 29.97 in 10.0 mi Calm Calm - N/A   Mostly Cloudy
7:51 AM 46.9 °F 26.1 °F 44% 29.99 in 10.0 mi Calm Calm - N/A   Scattered Clouds
8:51 AM 50.0 °F 28.0 °F 43% 30.03 in 10.0 mi WSW 4.6 mph - N/A   Scattered Clouds
9:51 AM 54.0 °F 27.0 °F 35% 30.05 in 10.0 mi WNW 5.8 mph - N/A   Scattered Clouds
10:51 AM 61.0 °F 21.9 °F 22% 30.04 in 10.0 mi North 12.7 mph - N/A   Scattered Clouds
11:51 AM 63.0 °F 19.9 °F 19% 30.01 in 10.0 mi North 12.7 mph - N/A   Scattered Clouds
12:51 PM 64.0 °F 19.0 °F 18% 29.99 in 10.0 mi NNE 9.2 mph - N/A   Scattered Clouds
1:51 PM 64.0 °F 19.0 °F 18% 29.97 in 10.0 mi NW 11.5 mph - N/A   Scattered Clouds
2:51 PM 66.0 °F 17.1 °F 15% 29.96 in 10.0 mi North 3.5 mph - N/A   Partly Cloudy
3:51 PM 66.0 °F 17.1 °F 15% 29.96 in 10.0 mi West 13.8 mph - N/A   Partly Cloudy
4:51 PM 64.9 °F 17.1 °F 16% 29.97 in 10.0 mi West 10.4 mph - N/A   Partly Cloudy
5:51 PM 63.0 °F 18.0 °F 18% 29.99 in 10.0 mi West 8.1 mph - N/A   Clear
6:51 PM 61.0 °F 18.0 °F 19% 30.01 in 10.0 mi West 5.8 mph - N/A   Clear
7:51 PM 59.0 °F 19.0 °F 21% 30.03 in 10.0 mi Calm Calm - N/A   Clear
8:51 PM 59.0 °F 19.0 °F 21% 30.05 in 10.0 mi NW 5.8 mph - N/A   Clear
9:51 PM 57.0 °F 19.9 °F 24% 30.07 in 10.0 mi WNW 4.6 mph - N/A   Clear
10:51 PM 53.1 °F 21.9 °F 30% 30.08 in 10.0 mi Calm Calm - N/A   Clear
11:51 PM 50.0 °F 23.0 °F 35% 30.10 in 10.0 mi WSW 4.6 mph - N/A   Clear